Location: Radomski Observatory
(40.2854°N, 79.5145°W)
Time: 21:44:09
(UTC-04:00)

Amateur Radio Satellites - All Passes

Search period start: 27 September 2016 21:14
Search period end: 28 September 2016 21:14
Location: Radomski Observatory, 40.2854°N, 79.5145°W

Satellite Date Start Highest point End Downlink Frequencies (MHz)
Time Altitude Azimuth
CUBEBUG 2 27 Sep 21:14:21 21:18:33 72° 258° (WSW) 21:22:42 437.445
FUNcube-1 27 Sep 21:21:10 21:25:09 48° 73° (ENE) 21:29:08 145.935
UWE-3 27 Sep 21:33:02 21:37:11 68° 259° (W) 21:41:19 435.000/436.395/437.385
ISS 27 Sep 21:33:19 21:36:32 57° 326° (NW) 21:39:45 145.825
COMPASS 1 27 Sep 21:37:00 21:40:40 30° 264° (W) 21:44:22 437.405
STRAND 1 27 Sep 21:45:44 21:50:00 27° 294° (WNW) 21:54:16 437.568
Oscar 11 27 Sep 22:01:15 22:05:28 54° 260° (W) 22:09:43 145.826/435.025
ZACube-1 27 Sep 22:03:05 22:07:05 48° 261° (W) 22:11:07 437.345
DANDE 27 Sep 22:07:54 22:12:01 21° 298° (WNW) 22:16:59 436.750
DELFI C3 27 Sep 22:14:29 22:18:29 84° 78° (ENE) 22:22:31 145.870
PRISM 27 Sep 22:19:22 22:23:32 87° 102° (ESE) 22:27:38 437.425
RS-15 27 Sep 22:22:00 22:33:14 49° 315° (NW) 22:45:03 29.354- 29.394
HUMSAT D 27 Sep 22:25:11 22:29:08 52° 74° (ENE) 22:33:09 437.325/437.525
Cosmos 2499 27 Sep 22:35:49 22:40:50 19° 278° (W) 22:46:06 435.465 / 435.565
GONETS M04 27 Sep 22:41:08 22:46:33 18° 282° (WNW) 22:51:55
AO-85 27 Sep 22:42:01 22:46:46 36° 309° (NW) 22:51:15 145.980
UNISAT 6 27 Sep 22:42:28 22:45:45 20° 94° (E) 22:49:05 437.425
FUNcube-1 27 Sep 22:59:49 23:01:40 13° 269° (W) 23:03:31 145.935
ESTCUBE 1 27 Sep 23:02:56 23:06:31 24° 67° (ENE) 23:10:07 437.505/2401.250
VELOX 1 27 Sep 23:04:58 23:06:47 12° 62° (ENE) 23:08:36 145.980
CUBEBUG 1 27 Sep 23:08:26 23:11:17 17° 65° (ENE) 23:14:07 437.445
AUBIESAT-1 27 Sep 23:10:55 23:11:29 10° 60° (ENE) 23:12:02 437.475
ISS 27 Sep 23:11:33 23:13:34 15° 345° (NNW) 23:15:36 145.825
ANTELSAT 27 Sep 23:17:06 23:21:23 47° 99° (E) 23:25:44 437.575/2403.000
TIGRISAT 27 Sep 23:37:35 23:42:00 77° 102° (ESE) 23:46:30 435.000
M-CUBED/EXP-1 PRIME 27 Sep 23:44:49 23:48:28 31° 67° (ENE) 23:51:55 437.505
50 SAT 27 Sep 23:47:12 23:50:18 27° 70° (ENE) 23:53:25 437.505
SPROUT 27 Sep 23:49:42 23:52:43 19° 66° (ENE) 23:55:43 437.525
SO-50 27 Sep 23:53:06 23:56:59 26° 47° (NE) 00:00:46 436.795
AISAT 27 Sep 23:54:52 23:59:04 43° 72° (ENE) 00:03:17 437.250
DUCHIFAT 1 27 Sep 23:57:14 23:59:25 14° 92° (E) 00:01:34 145.980
QB50P1 27 Sep 23:58:44 00:01:28 17° 93° (E) 00:04:13 145.935-145.965
UKube-1 28 Sep 00:03:01 00:06:31 24° 68° (ENE) 00:10:01 .
HUMSAT D 28 Sep 00:03:37 00:05:05 12° 270° (W) 00:06:32 437.325/437.525
POPSAT HIP 1 28 Sep 00:11:43 00:15:06 23° 95° (E) 00:18:28 437.405
UNISAT 6 28 Sep 00:18:31 00:22:33 36° 289° (WNW) 00:26:39 437.425
NANOSAT C BR1 28 Sep 00:27:47 00:31:36 33° 97° (E) 00:35:25 145.865
DX 1 28 Sep 00:30:30 00:34:49 64° 74° (ENE) 00:39:10 434.975-435.025
Cosmos 2491 28 Sep 00:32:21 00:34:46 11° 55° (NE) 00:37:09 435.465 / 435.565
VELOX 1 28 Sep 00:38:15 00:42:40 67° 258° (WSW) 00:47:07 145.980
ESTCUBE 1 28 Sep 00:39:04 00:43:08 33° 263° (W) 00:47:15 437.505/2401.250
RS-15 28 Sep 00:40:52 00:49:52 23° 347° (NNW) 00:59:03 29.354- 29.394
AUBIESAT-1 28 Sep 00:41:26 00:45:31 68° 252° (WSW) 00:49:19 437.475
CUBEBUG 1 28 Sep 00:42:57 00:47:12 45° 261° (W) 00:51:26 437.445
JAS-2 28 Sep 00:48:42 00:56:23 53° 98° (E) 01:03:38 435.910
ISS 28 Sep 00:49:48 00:51:08 12° 6° (N) 00:52:29 145.825
QB50P2 28 Sep 00:50:50 00:55:04 73° 102° (ESE) 00:59:17 145.880/145.840
POLYITAN 1 28 Sep 00:53:03 00:57:17 73° 102° (ESE) 01:01:30 437.675
ANTELSAT 28 Sep 00:55:00 00:57:44 16° 295° (WNW) 01:00:30 437.575/2403.000
BEESAT 3 28 Sep 01:07:02 01:10:35 34° 115° (ESE) 01:14:11 437.485
TISAT 1 28 Sep 01:09:38 01:13:13 28° 69° (ENE) 01:16:48 437.305
TIGRISAT 28 Sep 01:17:12 01:18:05 11° 298° (WNW) 01:19:00 435.000
M-CUBED/EXP-1 PRIME 28 Sep 01:19:52 01:22:59 20° 259° (W) 01:25:57 437.505
50 SAT 28 Sep 01:21:18 01:23:48 18° 266° (W) 01:26:19 437.505
SPROUT 28 Sep 01:24:26 01:28:22 36° 262° (W) 01:32:20 437.525
ITUPSAT 1 28 Sep 01:29:34 01:30:11 10° 59° (ENE) 01:30:48 437.325
DUCHIFAT 1 28 Sep 01:31:19 01:35:20 46° 287° (WNW) 01:39:21 145.980
AISAT 28 Sep 01:32:48 01:35:44 17° 267° (W) 01:38:38 437.250
SO-50 28 Sep 01:33:21 01:37:31 36° 245° (WSW) 01:41:35 436.795
QB50P1 28 Sep 01:33:29 01:37:23 38° 289° (WNW) 01:41:18 145.935-145.965
BUGSAT 1 28 Sep 01:33:49 01:37:51 73° 103° (ESE) 01:41:51 437.445
Oscar 19 28 Sep 01:35:38 01:38:34 15° 91° (E) 01:41:29 437.125/150
UKube-1 28 Sep 01:38:40 01:42:26 29° 263° (W) 01:46:13 .
SWISSCUBE 28 Sep 01:40:18 01:43:04 16° 63° (ENE) 01:45:51 437.505
POPSAT HIP 1 28 Sep 01:47:14 01:50:51 28° 291° (WNW) 01:54:27 437.405
BEESAT 28 Sep 01:52:44 01:55:58 19° 64° (ENE) 01:59:14 436.000
BEESAT 2 28 Sep 02:02:03 02:05:58 72° 119° (ESE) 02:09:56 435.950
NANOSAT C BR1 28 Sep 02:04:03 02:07:06 20° 293° (WNW) 02:10:10 145.865
DX 1 28 Sep 02:10:10 02:11:24 11° 269° (W) 02:12:38 434.975-435.025
Cosmos 2491 28 Sep 02:24:59 02:33:44 61° 78° (ENE) 02:42:25 435.465 / 435.565
ISS 28 Sep 02:25:41 02:28:30 26° 25° (NNE) 02:31:20 145.825
QB50P2 28 Sep 02:29:43 02:30:16 10° 298° (WNW) 02:30:48 145.880/145.840
POLYITAN 1 28 Sep 02:31:57 02:32:28 10° 298° (WNW) 02:32:59 437.675
Gurwin Techsat 1B 28 Sep 02:32:08 02:36:32 26° 95° (E) 02:40:55 435.225
JAS-2 28 Sep 02:34:07 02:40:59 35° 297° (WNW) 02:47:37 435.910
BEESAT 3 28 Sep 02:45:17 02:48:20 21° 313° (NW) 02:51:24 437.485
TISAT 1 28 Sep 02:45:29 02:48:49 23° 265° (W) 02:52:11 437.305
RS-15 28 Sep 02:58:23 03:08:20 27° 23° (NNE) 03:18:15 29.354- 29.394
ITUPSAT 1 28 Sep 03:02:28 03:07:14 89° 63° (ENE) 03:12:03 437.325
Oscar 19 28 Sep 03:13:12 03:18:18 62° 287° (WNW) 03:23:21 437.125/150
SWISSCUBE 28 Sep 03:15:41 03:20:22 58° 259° (W) 03:25:05 437.505
MOZHAYETS 4 28 Sep 03:18:32 03:22:02 22° 67° (ENE) 03:25:34
YUBILEINY 28 Sep 03:23:23 03:31:58 61° 91° (E) 03:40:31 435.215
BEESAT 28 Sep 03:28:48 03:33:22 48° 260° (W) 03:37:59 436.000
BEESAT 2 28 Sep 03:42:19 03:44:15 13° 318° (NW) 03:46:12 435.950
KKS-1 28 Sep 03:43:18 03:46:59 26° 68° (ENE) 03:50:40 437.445
ISS 28 Sep 04:01:57 04:05:06 43° 223° (SW) 04:08:14 145.825
PCSat 28 Sep 04:02:53 04:06:58 22° 106° (ESE) 04:11:04 145.827
AO-7 28 Sep 04:04:50 04:11:57 31° 96° (E) 04:19:01 29.400- 29.500
ITAMSAT 1 28 Sep 04:06:19 04:11:27 54° 101° (E) 04:16:33 435.822/435.867
Gurwin Techsat 1B 28 Sep 04:11:39 04:16:33 39° 291° (WNW) 04:21:27 435.225
Cosmos 2504 28 Sep 04:14:59 04:22:00 47° 90° (E) 04:28:48 435.465 / 435.565
STARS 28 Sep 04:16:41 04:20:25 28° 68° (ENE) 04:24:09 437.465
Cosmos 2491 28 Sep 04:22:47 04:29:55 29° 278° (W) 04:37:02 435.465 / 435.565
AIST 2 28 Sep 04:24:46 04:28:52 83° 120° (ESE) 04:33:01 435.215
CUBESAT XI-V 28 Sep 04:38:30 04:41:59 21° 66° (ENE) 04:45:28 437.345
MOZHAYETS 4 28 Sep 04:54:47 04:58:58 35° 263° (W) 05:03:12
RS-15 28 Sep 05:11:31 05:23:53 66° 52° (NE) 05:35:56 29.354- 29.394
KKS-1 28 Sep 05:19:35 05:23:27 28° 264° (W) 05:27:18 437.445
AIST 1 28 Sep 05:20:46 05:24:40 32° 91° (E) 05:28:34
YUBILEINY 28 Sep 05:21:53 05:29:16 29° 291° (WNW) 05:36:40 435.215
DANDE 28 Sep 05:22:45 05:24:59 11° 54° (NE) 05:27:13 436.750
CUSAT 1 28 Sep 05:31:13 05:37:19 25° 64° (ENE) 05:42:43 437.405
AO-85 28 Sep 05:34:26 05:37:37 21° 45° (NE) 05:40:40 145.980
PCSat 28 Sep 05:44:44 05:49:59 50° 304° (WNW) 05:55:17 145.827
ITAMSAT 1 28 Sep 05:46:51 05:50:29 19° 297° (WNW) 05:54:07 435.822/435.867
STARS 28 Sep 05:53:05 05:56:42 25° 264° (W) 06:00:22 437.465
AO-7 28 Sep 05:56:59 06:05:04 58° 294° (WNW) 06:13:07 29.400- 29.500
AIST 2 28 Sep 06:06:03 06:07:54 13° 319° (NW) 06:09:47 435.215
Cosmos 2504 28 Sep 06:09:15 06:15:33 30° 288° (WNW) 06:21:43 435.465 / 435.565
CUBESAT XI-V 28 Sep 06:14:39 06:19:03 40° 262° (W) 06:23:31 437.345
GOMX 1 28 Sep 06:30:12 06:32:52 16° 91° (E) 06:35:29 467.674
HORYU 2 28 Sep 06:30:27 06:34:55 77° 104° (ESE) 06:39:22 437.375
BRITE-PL 28 Sep 06:40:30 06:45:14 55° 99° (E) 06:49:35 437.365/2234.400
NOAA 18 28 Sep 06:50:02 06:54:02 20° 94° (E) 06:58:00 137.9125
DOVE 4 28 Sep 06:52:45 06:52:56 10° 89° (E) 06:53:06 437.250
AIST 1 28 Sep 06:59:01 07:02:18 20° 287° (WNW) 07:05:36
DANDE 28 Sep 07:01:34 07:09:46 53° 74° (ENE) 07:17:22 436.750
CUSAT 1 28 Sep 07:12:26 07:20:06 66° 266° (W) 07:26:25 437.405
AO-85 28 Sep 07:14:24 07:18:12 37° 245° (WSW) 07:21:48 145.980
LilacSat-2 28 Sep 07:14:26 07:18:08 44° 99° (E) 07:21:49 437.200
O/OREOS (USA 219) 28 Sep 07:16:06 07:20:07 32° 104° (ESE) 07:24:12 437.305
STRAND 1 28 Sep 07:21:32 07:26:25 49° 71° (ENE) 07:31:20 437.568
RS-15 28 Sep 07:24:50 07:35:40 38° 255° (WSW) 07:46:17 29.354- 29.394
NOAA 15 28 Sep 07:29:20 07:34:39 74° 103° (ESE) 07:39:55 137.62
Cubesat XI-IV 28 Sep 07:46:14 07:51:38 85° 104° (ESE) 07:57:00 437.490
CUTE-I 28 Sep 07:46:19 07:51:42 86° 104° (ESE) 07:57:05 437.470
GONETS M04 28 Sep 07:49:02 07:54:56 20° 79° (ENE) 08:00:50
AO-7 28 Sep 07:52:44 07:56:05 13° 315° (NW) 07:59:28 29.400- 29.500
CINEMA 3 28 Sep 08:00:45 08:03:22 16° 93° (E) 08:05:59 145.822/145.860
GOMX 1 28 Sep 08:07:06 08:11:14 40° 289° (WNW) 08:15:10 467.674
HORYU 2 28 Sep 08:09:43 08:10:50 11° 299° (WNW) 08:11:56 437.375
CUTE 1.7 + AOD 2 28 Sep 08:13:21 08:16:06 16° 92° (E) 08:18:49 437.475
CANX-2 28 Sep 08:14:20 08:17:28 19° 93° (E) 08:20:36 2200.000
SEEDS 28 Sep 08:15:30 08:16:55 11° 90° (E) 08:18:19 437.485
BRITE-PL 28 Sep 08:20:25 08:23:08 15° 298° (WNW) 08:25:45 437.365/2234.400
DOVE 4 28 Sep 08:26:57 08:31:05 59° 285° (WNW) 08:35:09 437.250
NOAA 18 28 Sep 08:29:39 08:34:57 52° 289° (WNW) 08:40:14 137.9125
AAUSAT CUBESAT 2 28 Sep 08:38:01 08:38:41 10° 90° (E) 08:39:20 437.432
HO-68 28 Sep 08:38:49 08:45:27 39° 98° (E) 08:52:03 435.675
DANDE 28 Sep 08:44:51 08:52:13 36° 273° (W) 08:59:07 436.750
LilacSat-2 28 Sep 08:50:13 08:52:02 13° 294° (WNW) 08:53:51 437.200
O/OREOS (USA 219) 28 Sep 08:55:47 08:59:33 25° 301° (WNW) 09:03:21 437.305
CUSAT 1 28 Sep 08:59:08 09:00:16 10° 286° (WNW) 09:01:24 437.405
STRAND 1 28 Sep 09:02:18 09:05:51 19° 267° (W) 09:09:25 437.568
CUBEBUG 2 28 Sep 09:05:44 09:09:11 23° 95° (E) 09:12:43 437.445
PRISM 28 Sep 09:07:49 09:11:53 57° 74° (ENE) 09:16:00 437.425
NOAA 15 28 Sep 09:10:52 09:13:47 15° 300° (WNW) 09:16:41 137.62
Cosmos 2499 28 Sep 09:17:24 09:24:26 62° 93° (E) 09:31:23 435.465 / 435.565
COMPASS 1 28 Sep 09:19:42 09:23:44 42° 98° (E) 09:27:44 437.405
UWE-3 28 Sep 09:23:10 09:26:41 24° 95° (E) 09:30:16 435.000/436.395/437.385
BEESAT 3 28 Sep 09:24:44 09:27:45 20° 47° (NE) 09:30:45 437.485
Cubesat XI-IV 28 Sep 09:28:31 09:30:57 13° 301° (WNW) 09:33:22 437.490
CUTE-I 28 Sep 09:28:38 09:30:59 13° 301° (WNW) 09:33:21 437.470
CINEMA 3 28 Sep 09:36:46 09:40:39 39° 288° (WNW) 09:44:38 145.822/145.860
UNISAT 6 28 Sep 09:41:39 09:44:22 17° 66° (ENE) 09:47:04 437.425
GONETS M04 28 Sep 09:41:45 09:50:36 81° 277° (W) 09:59:32
CUTE 1.7 + AOD 2 28 Sep 09:48:03 09:52:06 41° 288° (WNW) 09:56:08 437.475
SEEDS 28 Sep 09:48:45 09:52:58 58° 286° (WNW) 09:57:08 437.485
Oscar 11 28 Sep 09:49:10 09:52:55 27° 96° (E) 09:56:39 145.826/435.025
CANX-2 28 Sep 09:49:29 09:53:24 35° 289° (WNW) 09:57:18 2200.000
ZACube-1 28 Sep 09:51:34 09:55:26 31° 97° (E) 09:59:21 437.345
DELFI C3 28 Sep 09:54:48 09:55:58 11° 90° (E) 09:57:08 145.870
AAUSAT CUBESAT 2 28 Sep 10:10:23 10:14:32 62° 285° (WNW) 10:18:40 437.432
PHONESAT 2.4 28 Sep 10:11:18 10:12:21 11° 147° (SSE) 10:13:25 2401.200-2431.200
ANTELSAT 28 Sep 10:15:36 10:19:32 37° 71° (ENE) 10:23:28 437.575/2403.000
BEESAT 2 28 Sep 10:20:31 10:24:15 35° 52° (NE) 10:27:57 435.950
HO-68 28 Sep 10:26:35 10:33:06 40° 296° (WNW) 10:39:37 435.675
TIGRISAT 28 Sep 10:35:43 10:39:55 61° 74° (ENE) 10:44:06 435.000
CUBEBUG 2 28 Sep 10:42:04 10:45:48 30° 290° (WNW) 10:49:37 437.445
FUNcube-1 28 Sep 10:45:07 10:49:27 71° 284° (WNW) 10:53:51 145.935
PRISM 28 Sep 10:46:09 10:47:31 11° 269° (W) 10:48:54 437.425
DUCHIFAT 1 28 Sep 10:50:35 10:51:11 10° 62° (ENE) 10:51:47 145.980
QB50P1 28 Sep 10:51:49 10:53:40 13° 64° (ENE) 10:55:31 145.935-145.965
COMPASS 1 28 Sep 10:56:17 10:58:56 16° 294° (WNW) 11:01:33 437.405
UWE-3 28 Sep 10:59:23 11:03:07 29° 290° (WNW) 11:06:56 435.000/436.395/437.385
JAS-2 28 Sep 11:01:14 11:06:11 23° 58° (ENE) 11:11:33 435.910
BEESAT 3 28 Sep 11:01:50 11:05:32 38° 244° (WSW) 11:09:13 437.485
POPSAT HIP 1 28 Sep 11:04:23 11:07:06 17° 66° (ENE) 11:09:51 437.405
Cosmos 2499 28 Sep 11:12:47 11:18:04 22° 292° (WNW) 11:23:22 435.465 / 435.565
UNISAT 6 28 Sep 11:16:42 11:20:45 42° 261° (W) 11:24:48 437.425
NANOSAT C BR1 28 Sep 11:19:41 11:23:03 24° 68° (ENE) 11:26:24 145.865
Oscar 11 28 Sep 11:25:20 11:28:56 25° 292° (WNW) 11:32:31 145.826/435.025
DELFI C3 28 Sep 11:27:11 11:31:07 53° 286° (WNW) 11:35:01 145.870
ZACube-1 28 Sep 11:28:08 11:31:33 23° 292° (WNW) 11:35:02 437.345
QB50P2 28 Sep 11:42:43 11:46:46 49° 73° (ENE) 11:50:50 145.880/145.840
GONETS M04 28 Sep 11:43:43 11:48:56 17° 299° (WNW) 11:54:10
HUMSAT D 28 Sep 11:44:07 11:48:22 75° 285° (WNW) 11:52:39 437.325/437.525
POLYITAN 1 28 Sep 11:44:56 11:48:59 49° 73° (ENE) 11:53:02 437.675
PHONESAT 2.4 28 Sep 11:45:10 11:48:01 48° 162° (SSE) 11:50:52 2401.200-2431.200
ANTELSAT 28 Sep 11:53:32 11:56:23 17° 267° (W) 11:59:14 437.575/2403.000
BEESAT 2 28 Sep 11:58:53 12:01:50 20° 248° (WSW) 12:04:45 435.950
TIGRISAT 28 Sep 12:16:01 12:17:00 11° 270° (W) 12:17:59 435.000
DX 1 28 Sep 12:21:41 12:22:52 11° 90° (E) 12:24:05 434.975-435.025
DUCHIFAT 1 28 Sep 12:22:06 12:26:16 71° 258° (WSW) 12:30:27 145.980
BUGSAT 1 28 Sep 12:22:47 12:26:42 45° 73° (ENE) 12:30:36 437.445
QB50P1 28 Sep 12:24:50 12:28:57 56° 259° (W) 12:33:06 145.935-145.965
VELOX 1 28 Sep 12:29:24 12:32:55 23° 95° (E) 12:36:25 145.980
ESTCUBE 1 28 Sep 12:31:28 12:35:55 52° 100° (E) 12:40:19 437.505/2401.250
CUBEBUG 1 28 Sep 12:32:05 12:35:59 32° 97° (E) 12:39:52 437.445
POPSAT HIP 1 28 Sep 12:38:37 12:42:35 40° 262° (W) 12:46:32 437.405
JAS-2 28 Sep 12:43:58 12:50:22 71° 258° (WSW) 12:57:40 435.910
AIST 2 28 Sep 12:46:33 12:50:36 45° 54° (NE) 12:54:37 435.215
50 SAT 28 Sep 12:48:14 12:51:37 34° 98° (E) 12:54:57 437.505
PCSat 28 Sep 12:50:31 12:54:23 19° 45° (NE) 12:58:14 145.827
Oscar 19 28 Sep 12:51:36 12:55:34 23° 65° (ENE) 12:59:34 437.125/150
NANOSAT C BR1 28 Sep 12:55:03 12:58:39 27° 264° (W) 13:02:14 145.865
M-CUBED/EXP-1 PRIME 28 Sep 12:58:55 13:01:18 19° 101° (E) 13:03:42 437.505
SPROUT 28 Sep 13:10:31 13:14:27 36° 98° (E) 13:18:22 437.525
QB50P2 28 Sep 13:20:47 13:22:50 13° 268° (W) 13:24:53 145.880/145.840
PHONESAT 2.4 28 Sep 13:21:07 13:24:03 83° 353° (N) 13:27:02 2401.200-2431.200
AISAT 28 Sep 13:21:30 13:25:55 87° 280° (W) 13:30:17 437.250
POLYITAN 1 28 Sep 13:23:02 13:25:03 13° 269° (W) 13:27:04 437.675
UKube-1 28 Sep 13:25:33 13:29:43 45° 100° (E) 13:33:50 .
YUBILEINY 28 Sep 13:34:42 13:41:59 29° 68° (ENE) 13:49:12 435.215
Cosmos 2491 28 Sep 13:35:37 13:38:32 12° 73° (ENE) 13:41:27 435.465 / 435.565
ITAMSAT 1 28 Sep 13:49:55 13:50:19 10° 57° (ENE) 13:50:42 435.822/435.867
Gurwin Techsat 1B 28 Sep 13:52:32 13:57:27 39° 69° (ENE) 14:02:22 435.225
AUBIESAT-1 28 Sep 13:54:42 13:58:00 87° 287° (WNW) 14:01:20 437.475
DX 1 28 Sep 13:55:09 13:59:27 62° 286° (WNW) 14:03:44 434.975-435.025
BUGSAT 1 28 Sep 14:00:12 14:02:17 14° 268° (W) 14:04:23 437.445
VELOX 1 28 Sep 14:05:31 14:09:23 31° 291° (WNW) 14:13:13 145.980
Cosmos 2504 28 Sep 14:08:24 14:12:36 15° 64° (ENE) 14:16:53 435.465 / 435.565
CUBEBUG 1 28 Sep 14:08:46 14:12:04 22° 293° (WNW) 14:15:22 437.445
ESTCUBE 1 28 Sep 14:09:35 14:12:16 16° 296° (WNW) 14:14:56 437.505/2401.250
50 SAT 28 Sep 14:22:41 14:24:48 15° 294° (WNW) 14:26:54 437.505
AIST 2 28 Sep 14:26:00 14:28:44 17° 250° (WSW) 14:31:26 435.215
TISAT 1 28 Sep 14:28:44 14:32:49 52° 100° (E) 14:36:53 437.305
Oscar 19 28 Sep 14:29:38 14:34:35 45° 261° (W) 14:39:34 437.125/150
PCSat 28 Sep 14:32:55 14:38:19 71° 244° (WSW) 14:43:42 145.827
M-CUBED/EXP-1 PRIME 28 Sep 14:33:19 14:35:48 20° 296° (WNW) 14:38:16 437.505
SPROUT 28 Sep 14:47:07 14:50:07 19° 294° (WNW) 14:53:07 437.525
PHONESAT 2.4 28 Sep 14:57:15 15:00:09 59° 195° (SSW) 15:03:05 2401.200-2431.200
UKube-1 28 Sep 15:02:42 15:05:23 16° 296° (WNW) 15:08:02 .
AO-7 28 Sep 15:03:10 15:10:47 42° 62° (ENE) 15:18:24 29.400- 29.500
ITUPSAT 1 28 Sep 15:04:03 15:07:56 24° 95° (E) 15:11:46 437.325
SWISSCUBE 28 Sep 15:16:23 15:20:50 36° 98° (E) 15:25:13 437.505
ITAMSAT 1 28 Sep 15:23:43 15:28:53 79° 74° (ENE) 15:34:05 435.822/435.867
Cosmos 2491 28 Sep 15:24:55 15:33:37 71° 93° (E) 15:42:24 435.465 / 435.565
BEESAT 28 Sep 15:29:12 15:33:47 44° 99° (E) 15:38:20 436.000
YUBILEINY 28 Sep 15:30:48 15:39:19 62° 269° (W) 15:47:48 435.215
Gurwin Techsat 1B 28 Sep 15:33:08 15:37:28 25° 265° (W) 15:41:50 435.225
SO-50 28 Sep 15:45:58 15:50:49 79° 120° (ESE) 15:55:37 436.795
Cosmos 2504 28 Sep 15:59:28 16:06:57 87° 80° (E) 16:14:59 435.465 / 435.565
TISAT 1 28 Sep 16:05:59 16:08:00 13° 296° (WNW) 16:10:02 437.305
PHONESAT 2.4 28 Sep 16:34:04 16:35:54 15° 210° (SSW) 16:37:45 2401.200-2431.200
ITUPSAT 1 28 Sep 16:41:25 16:45:48 36° 291° (WNW) 16:50:09 437.325
MOZHAYETS 4 28 Sep 16:49:42 16:54:16 54° 100° (E) 16:58:48
SWISSCUBE 28 Sep 16:54:35 16:58:24 24° 294° (WNW) 17:02:13 437.505
AO-7 28 Sep 16:55:37 17:03:27 45° 260° (W) 17:11:19 29.400- 29.500
AIST 1 28 Sep 17:05:08 17:09:27 88° 262° (W) 17:13:43
ITAMSAT 1 28 Sep 17:07:08 17:08:55 12° 271° (W) 17:10:42 435.822/435.867
BEESAT 28 Sep 17:07:46 17:11:14 20° 295° (WNW) 17:14:42 436.000
KKS-1 28 Sep 17:10:13 17:14:33 54° 101° (E) 17:18:53 437.445
NOAA 15 28 Sep 17:12:08 17:15:01 15° 60° (ENE) 17:17:54 137.62
Cosmos 2491 28 Sep 17:24:21 17:31:15 25° 294° (WNW) 17:38:14 435.465 / 435.565
O/OREOS (USA 219) 28 Sep 17:26:03 17:30:36 57° 65° (ENE) 17:35:07 437.305
HORYU 2 28 Sep 17:27:41 17:32:03 66° 74° (ENE) 17:36:26 437.375
SO-50 28 Sep 17:28:47 17:31:51 17° 319° (NW) 17:34:53 436.795
CUTE-I 28 Sep 17:30:06 17:33:31 18° 62° (ENE) 17:36:57 437.470
Cubesat XI-IV 28 Sep 17:30:13 17:33:36 18° 62° (ENE) 17:37:01 437.490
GOMX 1 28 Sep 17:36:42 17:40:45 22° 67° (ENE) 17:44:39 467.674
STARS 28 Sep 17:41:55 17:46:14 57° 101° (E) 17:50:31 437.465
BRITE-PL 28 Sep 17:49:06 17:54:43 64° 74° (ENE) 18:00:15 437.365/2234.400
Cosmos 2504 28 Sep 17:55:15 17:59:22 16° 280° (W) 18:03:37 435.465 / 435.565
DOVE 4 28 Sep 17:56:13 17:58:41 14° 64° (ENE) 18:01:06 437.250
LilacSat-2 28 Sep 17:56:31 17:59:21 21° 69° (ENE) 18:02:11 437.200
CUBESAT XI-V 28 Sep 18:11:22 18:15:58 51° 99° (E) 18:20:29 437.345
NOAA 18 28 Sep 18:15:29 18:20:28 37° 68° (ENE) 18:25:28 137.9125
MOZHAYETS 4 28 Sep 18:28:11 18:30:58 16° 296° (WNW) 18:33:45
CUSAT 1 28 Sep 18:31:40 18:36:26 22° 81° (E) 18:41:50 437.405
KKS-1 28 Sep 18:48:13 18:50:39 15° 297° (WNW) 18:53:04 437.445
NOAA 15 28 Sep 18:48:50 18:54:07 75° 257° (WSW) 18:59:28 137.62
CINEMA 3 28 Sep 19:02:27 19:05:02 15° 66° (ENE) 19:07:33 145.822/145.860
CUTE 1.7 + AOD 2 28 Sep 19:07:01 19:08:29 12° 63° (ENE) 19:09:58 437.475
O/OREOS (USA 219) 28 Sep 19:07:17 19:09:28 13° 262° (W) 19:11:38 437.305
HO-68 28 Sep 19:07:29 19:13:25 29° 61° (ENE) 19:19:20 435.675
CANX-2 28 Sep 19:07:40 19:09:49 14° 64° (ENE) 19:12:00 2200.000
CUTE-I 28 Sep 19:07:48 19:13:03 62° 259° (W) 19:18:19 437.470
Cubesat XI-IV 28 Sep 19:07:54 19:13:08 63° 258° (WSW) 19:18:25 437.490
HORYU 2 28 Sep 19:07:59 19:09:02 11° 270° (W) 19:10:05 437.375
Cosmos 2499 28 Sep 19:08:37 19:14:09 21° 68° (ENE) 19:19:54 435.465 / 435.565
GOMX 1 28 Sep 19:13:19 19:18:30 47° 261° (W) 19:23:30 467.674
STARS 28 Sep 19:19:55 19:22:05 14° 297° (WNW) 19:24:15 437.465
BRITE-PL 28 Sep 19:29:47 19:33:31 18° 269° (W) 19:37:14 437.365/2234.400
LilacSat-2 28 Sep 19:30:22 19:33:31 25° 265° (W) 19:36:40 437.200
DOVE 4 28 Sep 19:30:52 19:35:53 68° 259° (WSW) 19:40:38 437.250
STRAND 1 28 Sep 19:33:32 19:36:55 17° 92° (E) 19:40:18 437.568
RS-15 28 Sep 19:34:21 19:44:49 43° 107° (ESE) 19:55:46 29.354- 29.394
CUBESAT XI-V 28 Sep 19:49:57 19:52:54 17° 296° (WNW) 19:55:50 437.345
GONETS M04 28 Sep 19:52:57 20:01:29 50° 76° (ENE) 20:09:54
NOAA 18 28 Sep 19:56:30 20:01:10 28° 264° (W) 20:05:50 137.9125
CUBEBUG 2 28 Sep 20:04:10 20:07:00 18° 67° (ENE) 20:09:50 437.445
DANDE 28 Sep 20:08:50 20:13:45 48° 90° (E) 20:20:12 436.750
COMPASS 1 28 Sep 20:10:03 20:13:33 27° 69° (ENE) 20:17:06 437.405
CUSAT 1 28 Sep 20:11:18 20:17:31 66° 283° (WNW) 20:25:09 437.405
UWE-3 28 Sep 20:20:32 20:23:19 18° 67° (ENE) 20:26:07 435.000/436.395/437.385
CINEMA 3 28 Sep 20:37:29 20:41:49 48° 261° (W) 20:46:01 145.822/145.860
SEEDS 28 Sep 20:39:23 20:43:35 87° 74° (ENE) 20:47:51 437.485
CUTE 1.7 + AOD 2 28 Sep 20:39:35 20:43:46 64° 260° (W) 20:48:00 437.475
CANX-2 28 Sep 20:41:06 20:45:13 52° 261° (W) 20:49:23 2200.000
ISS 28 Sep 20:41:14 20:44:28 75° 140° (SE) 20:47:43 145.825
Oscar 11 28 Sep 20:43:50 20:47:02 21° 67° (ENE) 20:50:15 145.826/435.025
ZACube-1 28 Sep 20:47:29 20:50:40 22° 68° (ENE) 20:53:52 437.345
HO-68 28 Sep 20:53:43 21:00:43 56° 258° (WSW) 21:07:46 435.675
AAUSAT CUBESAT 2 28 Sep 20:59:30 21:03:39 78° 77° (ENE) 21:07:51 437.432
